Theta_e
353 353 351 350 349 346 346 344 342 341 340 338 337 337 338 339 339 338 337 350 347 347 348 350 351 353 355 355 355 355 355 355 354 353 352 351 351 351 352 352 352 352 351
357 355 356 355 352 352 348 346 344 346 342 341 340 341 341 338 338 337 336 339 347 347 348 350 350 352 354 355 356 356 356 354 354 353 351 351 350 350 351 352 352 352 351
360 356 355 353 353 354 359 357 355 354 348 346 343 343 340 340 339 339 340 337 338 345 345 347 349 350 351 354 355 356 356 354 353 352 351 350 350 349 350 351 351 351 351
360 361 358 353 355 359 354 352 351 349 348 346 343 342 340 341 341 340 341 339 342 340 345 345 347 349 351 353 356 357 356 354 352 351 350 350 349 349 349 349 350 350 350
353 348 349 350 353 352 354 355 352 347 346 347 348 347 344 344 344 345 346 347 347 346 345 349 345 346 348 351 354 357 357 355 352 351 351 351 350 350 349 349 349 350 349
348 337 330 340 346 350 351 351 350 350 348 346 346 343 343 345 344 344 346 347 348 349 349 348 346 345 346 349 351 356 358 357 354 352 351 350 350 350 350 349 349 349 349
346 335 329 339 346 345 346 343 332 326 335 339 336 335 338 339 341 332 339 347 345 347 349 349 348 346 344 346 347 351 356 358 357 354 351 348 349 350 350 349 349 349 348
353 345 347 349 345 343 333 330 327 323 331 331 331 324 317 317 326 333 343 343 345 347 346 347 347 348 348 345 344 346 352 357 358 355 352 348 349 350 350 349 349 349 348
357 356 355 352 349 335 330 329 325 322 322 327 331 323 316 314 321 329 335 340 342 347 345 346 345 346 346 348 348 348 347 350 356 357 354 350 350 350 350 349 349 349 347
347 346 350 348 346 331 324 326 329 323 329 325 333 332 329 330 323 320 331 336 340 343 342 343 342 345 343 347 350 348 345 345 350 354 354 353 352 352 351 350 349 347 346
345 341 339 339 343 336 333 334 328 324 334 333 333 333 331 329 331 327 321 324 332 338 339 339 340 340 340 340 340 346 341 340 342 345 349 351 353 353 352 352 349 347 345
332 338 331 334 335 336 337 337 341 339 338 338 336 335 332 328 327 329 327 327 328 330 333 333 335 340 341 340 345 344 339 335 334 335 339 344 348 350 351 350 349 348 347
326 327 330 330 328 329 329 330 331 332 333 334 337 336 337 336 333 330 328 324 324 327 329 333 333 333 335 336 338 340 340 333 332 330 332 335 339 343 345 347 347 346 347
324 329 327 324 323 323 324 326 325 324 326 327 329 332 334 335 336 332 328 323 318 322 326 326 331 336 336 336 339 338 339 333 331 328 327 329 332 336 339 340 341 341 342
321 323 322 322 322 321 321 321 319 321 323 323 324 325 327 327 331 335 333 329 322 315 315 324 328 332 334 336 338 339 338 337 331 327 325 326 327 330 332 333 334 335 336
321 320 319 319 319 318 318 318 316 317 318 318 319 320 321 323 324 326 328 329 329 323 316 319 327 331 335 334 341 341 341 336 328 326 326 325 324 325 327 328 329 331 332
319 316 316 315 313 312 313 312 312 312 312 312 314 314 315 317 317 320 322 324 326 326 322 322 324 328 332 336 337 340 341 338 336 324 325 324 321 322 324 325 325 327 328
316 313 313 311 310 310 310 309 308 308 308 308 308 309 309 311 310 314 316 319 322 324 322 320 322 323 327 327 333 334 337 340 338 332 324 323 320 318 320 322 322 322 322
312 312 311 310 310 310 309 308 307 307 307 307 307 306 306 306 307 309 311 314 318 322 323 321 322 325 324 329 327 328 332 333 339 334 322 321 319 318 319 319 319 318 316
312 311 311 310 309 309 309 308 307 307 308 308 307 307 306 306 306 307 309 310 313 310 315 320 321 321 324 326 326 322 322 331 331 336 331 325 320 318 318 318 319 319 313
311 310 309 308 309 309 308 307 306 306 305 305 306 306 306 307 308 308 306 306 306 305 308 310 317 319 319 320 319 323 322 325 329 334 330 331 325 322 319 317 320 318 311
312 311 310 309 308 308 304 303 305 305 306 306 304 304 305 307 306 306 306 307 306 304 303 305 310 314 317 319 321 322 322 321 319 333 331 332 329 326 324 322 317 312 309
310 308 309 308 307 306 302 301 303 305 305 305 304 304 304 305 305 304 304 305 306 305 306 307 306 311 316 320 322 322 320 321 320 327 331 329 330 327 329 326 312 308 307
306 307 307 307 305 306 302 300 301 304 305 305 305 304 304 303 304 303 304 304 306 307 308 311 311 315 317 321 323 323 322 322 322 326 331 324 330 329 322 319 312 307 306
307 307 307 307 307 307 303 300 301 306 306 306 306 305 305 304 302 299 303 302 303 305 309 306 305 303 303 307 310 321 319 318 317 320 329 328 327 321 319 313 312 309 307
306 307 307 308 308 309 304 300 301 306 305 306 307 307 303 303 300 297 302 302 301 303 306 308 309 308 307 312 308 317 316 315 316 315 327 327 320 318 313 314 310 309 307
Wind_Speed
5 5 5 6 8 8 10 9 8 9 9 10 9 8 7 5 4 3 3 14 14 13 13 14 15 15 15 14 14 14 15 15 16 15 14 13 13 14 14 13 14 14 14
4 3 3 3 3 3 5 9 7 6 10 8 8 7 7 6 6 6 4 6 14 13 14 16 17 17 16 16 16 15 15 16 16 15 14 13 14 15 14 14 14 14 14
3 6 2 3 4 4 5 5 3 4 3 4 7 8 9 8 6 7 6 4 5 16 17 18 18 18 18 18 17 16 15 16 17 15 15 14 14 14 14 14 16 14 15
4 4 5 6 6 4 4 3 4 4 4 4 6 7 7 7 10 10 8 7 6 6 12 18 17 19 19 19 19 18 17 17 17 16 16 15 15 15 14 15 15 14 13
7 10 8 11 9 4 4 5 3 8 7 5 7 7 8 6 9 9 10 9 9 7 5 10 19 19 21 21 20 20 19 18 17 18 17 16 16 15 15 15 15 14 14
10 9 4 16 17 7 6 7 8 4 3 4 9 9 14 11 8 12 6 3 5 7 7 8 7 9 21 22 22 21 22 21 19 19 18 16 16 16 16 14 14 14 14
10 10 8 16 16 8 4 9 7 9 9 11 8 8 6 14 7 6 11 8 7 7 6 6 5 5 6 18 19 20 21 21 21 19 17 16 16 16 16 14 14 13 12
13 11 11 11 4 2 8 9 4 3 3 5 4 5 7 15 12 10 5 12 12 7 9 11 9 8 5 4 8 15 17 19 20 19 18 17 17 16 16 14 12 13 12
1 6 6 7 3 7 8 6 8 8 5 5 9 3 2 8 5 10 13 12 9 6 6 5 5 5 5 5 6 7 15 17 19 18 17 17 16 16 15 14 12 12 11
5 6 4 6 2 4 6 8 8 7 9 6 3 11 15 9 6 8 4 4 8 7 6 4 5 5 5 4 8 10 10 15 17 15 15 15 15 16 15 14 14 12 10
2 3 3 2 5 3 4 7 5 9 8 6 8 7 10 12 16 11 9 11 5 5 6 7 10 8 8 8 10 11 14 13 14 14 14 15 16 15 15 15 13 12 10
5 7 9 7 6 4 4 4 3 9 10 9 9 8 7 8 9 9 11 12 11 9 9 7 6 5 6 8 12 14 13 11 12 13 14 15 15 14 15 16 15 13 11
6 7 7 6 5 5 7 6 6 8 7 8 8 9 10 11 10 12 11 11 11 8 6 7 9 8 7 5 7 11 12 12 14 14 14 13 14 15 16 14 13 13 11
5 6 6 8 8 8 7 6 6 7 10 9 10 9 9 10 11 12 11 11 13 10 6 9 7 8 8 9 10 15 9 14 16 14 12 13 14 14 14 16 14 10 11
6 7 8 8 8 7 8 7 7 9 9 10 11 12 10 10 11 11 13 13 13 13 14 8 6 8 8 8 10 8 8 9 12 11 10 11 12 11 9 9 12 10 9
7 8 9 9 9 9 9 8 8 9 10 9 9 12 12 10 12 11 11 12 14 14 17 12 9 8 8 8 6 6 9 11 7 9 11 12 13 12 13 14 13 14 11
7 9 10 10 11 11 11 10 10 11 11 11 10 12 13 13 10 11 12 12 12 14 17 13 9 6 5 5 5 4 4 5 4 14 16 15 15 16 16 15 13 13 13
8 9 10 11 11 11 10 10 12 12 13 12 12 13 14 11 14 13 11 14 14 14 14 16 14 11 7 7 5 4 5 5 5 10 16 16 14 10 7 9 8 10 13
8 9 11 11 12 11 12 11 12 13 13 13 13 12 13 15 15 13 14 13 11 11 14 15 12 6 8 4 4 3 4 4 4 5 11 11 10 13 14 11 12 11 12
8 10 11 12 13 13 13 13 12 14 13 12 13 13 13 15 15 15 14 15 12 9 12 14 12 11 6 4 4 4 4 4 4 6 7 6 10 12 14 15 13 12 10
9 11 12 12 12 12 10 10 13 14 15 15 14 14 14 17 24 20 13 14 13 10 10 11 12 12 11 7 4 4 5 4 5 6 5 4 4 5 6 9 14 16 13
10 11 12 12 12 9 13 13 16 14 16 16 15 15 15 20 19 24 24 25 21 15 15 12 11 12 14 9 7 5 5 3 3 4 6 6 8 7 7 7 12 16 16
12 12 12 12 14 14 17 17 21 15 15 15 16 15 14 13 18 16 18 20 21 24 23 15 16 14 13 6 7 7 4 4 4 4 7 8 7 8 7 8 16 17 17
11 11 12 13 13 13 17 18 16 13 14 16 16 17 16 17 16 17 15 16 16 14 15 13 14 14 13 14 6 4 5 4 2 5 5 9 5 4 3 2 17 16 15
11 10 12 13 13 15 17 17 17 16 16 18 15 16 16 17 21 18 14 17 17 15 13 15 13 14 15 21 10 1 4 3 4 4 5 8 3 3 2 4 7 14 14
11 10 12 13 16 15 17 18 19 14 17 14 16 16 20 21 23 17 13 15 16 16 13 11 12 12 13 17 16 8 6 5 3 4 5 8 5 5 3 4 3 7 6
Wind_Direction
230 201 215 198 189 200 193 204 207 196 200 209 219 236 256 260 250 256 166 180 186 182 191 204 215 223 225 230 234 235 234 229 231 235 234 232 235 239 243 237 239 235 233
239 213 218 274 256 227 214 203 213 193 192 188 206 226 242 250 226 221 213 202 202 196 202 210 214 221 226 225 229 231 227 223 229 231 234 230 232 236 239 242 240 240 237
246 299 257 251 275 270 306 292 220 248 210 194 198 205 212 214 217 232 234 246 209 214 215 214 214 218 225 226 226 225 222 220 224 227 232 229 232 235 240 241 241 236 236
224 198 278 271 231 228 223 246 323 318 225 230 241 234 229 207 206 210 212 214 221 241 224 228 222 219 222 224 224 223 219 219 218 222 226 226 230 231 234 240 243 242 238
356 351 306 285 281 271 267 265 163 185 268 304 269 234 231 221 217 208 206 211 216 224 216 212 218 220 222 224 223 219 217 219 213 219 224 221 227 227 230 237 242 241 243
152 182 333 318 291 294 278 293 306 321 320 307 309 338 343 330 349 344 305 266 240 237 240 237 227 223 223 224 226 217 215 209 218 219 219 213 219 223 225 232 238 235 242
177 178 206 208 225 228 295 16 24 14 351 350 341 347 326 314 348 208 271 279 270 267 259 247 231 245 246 231 233 229 224 218 211 217 220 209 209 219 223 222 231 237 240
179 194 208 222 225 334 60 33 22 346 325 10 341 2 2 330 307 312 243 255 257 244 249 246 236 230 230 238 211 230 229 231 226 217 216 209 206 214 220 215 221 233 237
48 186 236 237 244 80 66 312 316 269 228 213 163 171 106 229 289 268 259 245 241 234 231 256 271 270 277 274 278 232 221 230 233 228 218 217 205 207 210 211 213 223 228
36 25 333 281 203 174 199 196 184 221 234 210 238 196 223 251 238 279 287 291 266 245 246 251 248 242 250 263 246 241 227 227 231 231 228 225 213 209 202 201 206 208 220
324 329 346 68 64 178 217 223 189 203 233 250 227 228 224 247 256 250 265 271 260 257 228 233 238 237 247 251 259 237 229 214 228 225 224 226 221 211 207 187 200 207 215
350 48 24 13 16 10 345 349 262 237 246 250 250 244 235 238 236 242 247 252 254 254 252 257 252 239 235 240 255 232 231 226 219 230 225 219 216 216 214 176 191 199 212
340 350 6 4 358 346 324 315 314 298 291 280 263 253 251 250 238 242 239 247 247 242 238 225 236 235 237 237 249 254 248 244 241 234 228 227 223 212 199 176 194 192 204
317 348 346 350 338 330 307 298 293 288 293 295 289 280 263 255 262 267 264 270 274 273 249 256 239 217 212 227 232 233 245 233 232 225 226 227 224 226 196 181 184 192 200
336 334 333 321 310 300 304 306 299 295 289 290 290 286 280 270 268 265 262 265 272 273 264 269 241 224 217 218 219 226 240 233 225 223 216 219 222 207 200 200 173 182 197
337 321 311 315 320 320 319 318 308 305 306 308 305 303 302 296 290 287 272 269 272 269 268 246 253 226 214 226 192 198 221 218 210 224 234 224 216 198 203 201 185 176 179
321 321 323 331 332 328 326 324 315 308 305 307 307 306 309 302 295 301 287 287 275 266 265 256 263 269 219 164 187 197 222 247 213 210 213 217 212 205 203 207 178 185 166
339 335 326 318 309 301 296 290 287 288 291 292 297 294 293 293 294 304 288 291 275 271 273 282 266 235 220 226 176 184 214 205 223 229 222 216 209 200 191 217 203 188 152
330 318 301 297 297 293 290 281 277 277 274 271 270 273 279 280 282 280 277 286 293 290 277 273 272 253 242 200 213 220 215 209 220 277 227 224 198 182 181 182 189 174 157
315 304 295 301 301 291 293 286 288 281 274 274 269 267 273 274 273 281 284 278 277 306 315 280 269 271 242 207 165 183 245 198 226 244 203 201 203 194 193 167 167 173 162
300 295 293 293 289 299 294 306 301 289 289 281 272 270 265 263 269 275 274 276 282 283 287 290 288 259 257 266 201 189 203 192 212 222 225 175 185 178 188 165 163 168 163
309 303 305 302 306 300 303 291 288 288 285 277 277 276 272 270 268 265 260 261 258 261 263 262 273 283 251 248 245 213 189 181 236 218 222 209 176 197 176 183 171 165 165
321 313 308 317 310 308 291 287 281 280 277 271 273 272 269 264 268 269 268 265 258 246 241 251 260 259 280 229 242 226 198 185 209 237 212 221 186 200 191 180 169 171 153
311 307 313 308 299 289 273 267 265 278 274 274 271 270 269 269 263 263 264 266 266 266 262 234 235 248 246 271 246 216 193 201 254 256 231 246 164 180 104 63 165 157 146
308 309 298 301 295 298 290 290 290 290 280 274 265 260 257 261 260 246 249 260 265 265 258 252 244 256 266 252 246 216 244 199 235 241 227 233 144 116 109 118 122 137 138
305 310 309 308 298 309 309 304 298 298 282 270 266 260 248 246 252 247 246 256 260 260 257 258 260 263 252 249 233 207 209 230 218 296 234 204 164 160 133 60 137 113 114